When you browse on this site, cookies collect data to enhance your experience and personalize the content and advertising you see.
Visit our Privacy Policy to learn more. By continuing to use the site, you agree to this use of cookies and data.
  • In Latvia
  • List of Countries
  • For 7 days
  • Water Temperature
  • Weather Map
  • Weather Widgets
  • user-avatar
    Login

    Hourly Weather Adelaide

    Today, 28 January, Tuesday

    Time Temperature Precipitation Wind Pressure Humidity
    00:00 +17°C° 0 mm 3 mps 758 mmHg 76%
    01:00 +17°C° 0 mm 2 mps 758 mmHg 74%
    02:00 +17°C° 0 mm 2 mps 758 mmHg 72%
    03:00 +18°C° 0 mm 1 mps 758 mmHg 70%
    04:00 +18°C° 0 mm 1 mps 758 mmHg 66%
    05:00 +19°C° 0 mm 1 mps 758 mmHg 62%
    06:00 +19°C° 0 mm 1 mps 758 mmHg 57%
    07:00 +22°C° 0 mm 1 mps 758 mmHg 49%
    08:00 +25°C° 0 mm 1 mps 758 mmHg 41%
    09:00 +28°C° 0 mm 1 mps 759 mmHg 33%
    10:00 +28°C° 0 mm 2 mps 759 mmHg 33%
    11:00 +29°C° 0 mm 2 mps 758 mmHg 32%
    12:00 +30°C° 0 mm 3 mps 758 mmHg 32%
    13:00 +30°C° 0 mm 3 mps 757 mmHg 33%
    14:00 +30°C° 0 mm 4 mps 757 mmHg 34%
    15:00 +30°C° 0 mm 4 mps 757 mmHg 34%
    16:00 +30°C° 0 mm 4 mps 757 mmHg 36%
    17:00 +29°C° 0 mm 4 mps 757 mmHg 38%
    18:00 +28°C° 0 mm 4 mps 757 mmHg 40%
    19:00 +26°C° 0 mm 4 mps 757 mmHg 42%
    20:00 +25°C° 0 mm 3 mps 758 mmHg 45%
    21:00 +22°C° 0 mm 3 mps 758 mmHg 47%
    22:00 +22°C° 0 mm 3 mps 758 mmHg 47%
    23:00 +23°C° 0 mm 2 mps 758 mmHg 47%

    Tomorrow, 29 January, Wednesday

    Time Temperature Precipitation Wind Pressure Humidity
    00:00 +23°C° 0 mm 2 mps 758 mmHg 46%
    01:00 +21°C° 0 mm 2 mps 758 mmHg 46%
    02:00 +21°C° 0 mm 2 mps 757 mmHg 46%
    03:00 +21°C° 0 mm 2 mps 757 mmHg 45%
    04:00 +21°C° 0 mm 2 mps 757 mmHg 44%
    05:00 +23°C° 0 mm 2 mps 757 mmHg 43%
    06:00 +23°C° 0 mm 2 mps 757 mmHg 42%
    07:00 +26°C° 0 mm 1 mps 758 mmHg 37%
    08:00 +29°C° 0 mm 1 mps 758 mmHg 33%
    09:00 +32°C° 0 mm 1 mps 758 mmHg 29%
    10:00 +33°C° 0 mm 1 mps 757 mmHg 26%
    11:00 +35°C° 0 mm 1 mps 756 mmHg 23%
    12:00 +37°C° 0 mm 1 mps 756 mmHg 20%
    13:00 +38°C° 0 mm 2 mps 755 mmHg 19%
    14:00 +38°C° 0 mm 2 mps 755 mmHg 18%
    15:00 +38°C° 0 mm 3 mps 754 mmHg 17%
    16:00 +38°C° 0 mm 3 mps 754 mmHg 18%
    17:00 +37°C° 0 mm 3 mps 754 mmHg 19%
    18:00 +36°C° 0 mm 3 mps 754 mmHg 19%
    19:00 +34°C° 0 mm 3 mps 754 mmHg 21%
    20:00 +31°C° 0 mm 3 mps 754 mmHg 23%
    21:00 +29°C° 0 mm 3 mps 754 mmHg 25%
    22:00 +29°C° 0 mm 3 mps 754 mmHg 25%
    23:00 +29°C° 0 mm 3 mps 754 mmHg 25%

    Day after tomorrow, 30 January, Thursday

    Time Temperature Precipitation Wind Pressure Humidity
    00:00 +29°C° 0 mm 3 mps 753 mmHg 25%
    01:00 +29°C° 0 mm 3 mps 753 mmHg 24%
    02:00 +29°C° 0 mm 3 mps 753 mmHg 24%
    03:00 +29°C° 0 mm 3 mps 753 mmHg 23%
    04:00 +29°C° 0 mm 3 mps 753 mmHg 23%
    05:00 +29°C° 0 mm 3 mps 753 mmHg 23%
    06:00 +30°C° 0 mm 3 mps 753 mmHg 23%
    07:00 +33°C° 0 mm 4 mps 753 mmHg 21%
    08:00 +36°C° 0 mm 4 mps 753 mmHg 18%
    09:00 +40°C° 0 mm 4 mps 753 mmHg 16%
    10:00 +41°C° 0 mm 4 mps 753 mmHg 15%
    11:00 +42°C° 0 mm 3 mps 752 mmHg 15%
    12:00 +42°C° 0 mm 3 mps 751 mmHg 15%
    13:00 +43°C° 0 mm 3 mps 751 mmHg 15%
    14:00 +43°C° 0 mm 3 mps 750 mmHg 15%
    15:00 +43°C° 0 mm 3 mps 750 mmHg 14%
    16:00 +42°C° 0 mm 3 mps 750 mmHg 16%
    17:00 +40°C° 0 mm 3 mps 750 mmHg 17%
    18:00 +39°C° 0 mm 2 mps 749 mmHg 18%
    19:00 +38°C° 0 mm 3 mps 750 mmHg 22%
    20:00 +37°C° 0 mm 4 mps 751 mmHg 26%
    21:00 +35°C° 0 mm 6 mps 751 mmHg 30%
    22:00 +34°C° 0 mm 4 mps 751 mmHg 38%
    23:00 +33°C° 0 mm 3 mps 751 mmHg 46%

    31 January, Friday

    Time Temperature Precipitation Wind Pressure Humidity
    00:00 +31°C° 0 mm 2 mps 751 mmHg 53%
    01:00 +31°C° 0 mm 2 mps 750 mmHg 55%
    02:00 +30°C° 0 mm 1 mps 750 mmHg 58%
    03:00 +30°C° 0 mm 1 mps 750 mmHg 60%
    04:00 +30°C° 0 mm 1 mps 750 mmHg 59%
    05:00 +30°C° 0 mm 1 mps 750 mmHg 58%
    06:00 +31°C° 0 mm 1 mps 751 mmHg 57%
    07:00 +33°C° 0 mm 3 mps 750 mmHg 51%
    08:00 +35°C° 0 mm 4 mps 750 mmHg 46%
    09:00 +38°C° 0 mm 6 mps 750 mmHg 40%
    10:00 +38°C° 0 mm 6 mps 750 mmHg 40%
    11:00 +38°C° 0 mm 6 mps 750 mmHg 41%
    12:00 +38°C° 0 mm 6 mps 749 mmHg 41%
    13:00 +36°C° 0.4 mm 6 mps 749 mmHg 44%
    14:00 +35°C° 0.4 mm 7 mps 748 mmHg 46%
    15:00 +35°C° 0.4 mm 7 mps 748 mmHg 49%
    16:00 +33°C° 0.9 mm 7 mps 749 mmHg 61%
    17:00 +29°C° 0.9 mm 6 mps 749 mmHg 74%
    18:00 +27°C° 0.9 mm 6 mps 749 mmHg 86%
    19:00 +27°C° 1 mm 5 mps 750 mmHg 87%
    20:00 +27°C° 1 mm 5 mps 750 mmHg 87%
    21:00 +27°C° 1 mm 4 mps 751 mmHg 88%
    22:00 +27°C° 2.5 mm 4 mps 751 mmHg 87%
    23:00 +27°C° 2.5 mm 5 mps 751 mmHg 86%

    1 February, Saturday

    Time Temperature Precipitation Wind Pressure Humidity
    00:00 +27°C° 2.5 mm 5 mps 751 mmHg 85%
    01:00 +27°C° 0.1 mm 4 mps 751 mmHg 85%
    02:00 +27°C° 0.1 mm 4 mps 750 mmHg 86%
    03:00 +27°C° 0.1 mm 4 mps 750 mmHg 86%
    04:00 +26°C° 0.4 mm 4 mps 751 mmHg 88%
    05:00 +23°C° 0.4 mm 5 mps 752 mmHg 89%
    06:00 +22°C° 0.4 mm 5 mps 753 mmHg 91%
    07:00 +22°C° 0.4 mm 5 mps 754 mmHg 88%
    08:00 +21°C° 0.4 mm 5 mps 754 mmHg 86%
    09:00 +21°C° 0.4 mm 5 mps 755 mmHg 83%
    10:00 +21°C° 0.1 mm 5 mps 755 mmHg 80%
    11:00 +21°C° 0.1 mm 5 mps 756 mmHg 77%
    12:00 +21°C° 0.1 mm 5 mps 756 mmHg 73%
    13:00 +21°C° 0 mm 5 mps 756 mmHg 70%
    14:00 +21°C° 0 mm 5 mps 756 mmHg 67%
    15:00 +22°C° 0 mm 6 mps 756 mmHg 64%
    16:00 +21°C° 0 mm 6 mps 756 mmHg 65%
    17:00 +21°C° 0 mm 6 mps 756 mmHg 65%
    18:00 +20°C° 0 mm 6 mps 756 mmHg 65%
    19:00 +19°C° 0 mm 5 mps 757 mmHg 68%
    20:00 +17°C° 0 mm 5 mps 757 mmHg 71%
    21:00 +16°C° 0 mm 5 mps 758 mmHg 74%
    22:00 +17°C° 0 mm 4 mps 758 mmHg 74%
    23:00 +15°C° 0 mm 4 mps 757 mmHg 74%

    2 February, Sunday

    Time Temperature Precipitation Wind Pressure Humidity
    00:00 +15°C° 0 mm 4 mps 757 mmHg 74%
    01:00 +15°C° 0 mm 4 mps 757 mmHg 73%
    02:00 +15°C° 0 mm 4 mps 757 mmHg 73%
    03:00 +15°C° 0 mm 4 mps 757 mmHg 72%
    04:00 +16°C° 0 mm 3 mps 758 mmHg 72%
    05:00 +16°C° 0 mm 3 mps 758 mmHg 71%
    06:00 +16°C° 0 mm 3 mps 759 mmHg 71%
    07:00 +17°C° 0 mm 3 mps 759 mmHg 66%
    08:00 +18°C° 0 mm 3 mps 759 mmHg 62%
    09:00 +20°C° 0 mm 3 mps 760 mmHg 57%
    10:00 +20°C° 0 mm 4 mps 759 mmHg 56%
    11:00 +21°C° 0 mm 4 mps 759 mmHg 55%
    12:00 +22°C° 0 mm 5 mps 758 mmHg 54%
    13:00 +22°C° 0 mm 5 mps 758 mmHg 55%
    14:00 +22°C° 0 mm 5 mps 757 mmHg 56%
    15:00 +22°C° 0 mm 5 mps 757 mmHg 57%
    16:00 +21°C° 0 mm 5 mps 757 mmHg 60%
    17:00 +21°C° 0 mm 5 mps 757 mmHg 63%
    18:00 +20°C° 0 mm 5 mps 757 mmHg 66%
    19:00 +19°C° 0 mm 5 mps 758 mmHg 68%
    20:00 +18°C° 0 mm 4 mps 758 mmHg 71%
    21:00 +18°C° 0 mm 4 mps 758 mmHg 74%
    22:00 +17°C° 0 mm 4 mps 758 mmHg 75%
    23:00 +17°C° 0 mm 4 mps 758 mmHg 75%
    Show more